Volver al catálogo

CZ-6A DEB

ActivoPO
NORAD 60689·DEBRIS·🇨🇳 China

Lanzado Aug 6, 2024 desde Taiyuan Satellite Launch Center

Loading…

Próximos Pases (próximas 24 horas)

TLE

ActualizadoSource: Space-Track

Época: Sep 14, 2026, 07:40 UTC

1 60689U 24140CS  26257.31973428  .00000631  00000-0  26317-3 0  9991
2 60689  88.9936 263.7903 0027103 266.1690  93.6404 14.24916424109011

Sigue CZ-6A DEB en tiempo real con AllMySat

Download on the App Store